ST-2

Last updated on Tue Sep 22 2026 00:03:12 GMT+0000 (Coordinated Universal Time)

1 37606U 11022B 26264.58964250 -.00000215 00000+0 00000+0 0 9994 2 37606 0.0170 169.2271 0001718 18.6054 112.9422 1.00273041 56247
UTC large
Height (km)
Speed (km/s)
/
Latitude / Longitude
Inclination (degrees)
Orbital Period (minutes)
Azimuth
Elevation
Range (km)
Doppler Factor

Next 0 passes for location: London (51.5072 / 0.1276)

No passes found over London.
ST-2